User: anonymous   Login
Location: Huntington Beach
(33.6600°N, 117.9980°W)
Time: 04:21:41
(UTC-08:00)
Language:

Hubble Space Telescope - Orbit

View from above orbital plane
View from above orbital plane
View from above satellite
View from above satellite

Ground track
Ground track

The orbit data is extracted from the following two-line orbital elements,

1 20580U 90037B   15026.05785163  .00001820  00000-0  10804-3 0  2083
2 20580 028.4717 010.8754 0003042 148.5330 256.9817 15.06682760158344
Epoch (UTC): 26 January 2015 01:23:18
Eccentricity: 0.0003042
inclination: 28.4717°
perigee height: 544 km
apogee height: 548 km
right ascension of ascending node: 10.8754°
argument of perigee: 148.5330°
revolutions per day: 15.06682760
mean anomaly at epoch: 256.9817°
orbit number at epoch: 15834

The dashed part of the orbit path shows where the satellite is in the earth's shadow,  

DLR